TimeEST,TemperatureF,Dew PointF,Humidity,Sea Level PressureIn,VisibilityMPH,Wind Direction,Wind SpeedMPH,Gust SpeedMPH,PrecipitationIn,Events,Conditions,WindDirDegrees,DateUTC
12:53 AM,64.4,60.8,88,30.16,10.0,SSW,3.5,-,N/A,,Clear,200,2013-01-14 05:53:00
1:53 AM,64.0,61.0,90,30.17,10.0,SSW,3.5,-,N/A,,Clear,210,2013-01-14 06:53:00
2:53 AM,64.0,61.0,90,30.17,10.0,South,3.5,-,N/A,,Clear,180,2013-01-14 07:53:00
3:53 AM,62.1,60.1,93,30.15,10.0,SSE,5.8,-,N/A,,Clear,150,2013-01-14 08:53:00
4:53 AM,62.1,60.1,93,30.13,10.0,SSE,3.5,-,N/A,,Clear,160,2013-01-14 09:53:00
5:53 AM,62.1,60.1,93,30.14,10.0,South,5.8,-,N/A,,Clear,170,2013-01-14 10:53:00
6:53 AM,61.0,60.1,97,30.15,10.0,South,5.8,-,N/A,,Clear,170,2013-01-14 11:53:00
7:53 AM,62.1,60.1,93,30.17,10.0,South,4.6,-,N/A,,Clear,180,2013-01-14 12:53:00
8:53 AM,64.9,62.1,90,30.19,10.0,South,5.8,-,N/A,,Clear,170,2013-01-14 13:53:00
9:53 AM,69.1,63.0,81,30.20,10.0,South,8.1,-,N/A,,Clear,170,2013-01-14 14:53:00
10:53 AM,72.0,63.0,73,30.20,10.0,SSW,5.8,-,N/A,,Clear,200,2013-01-14 15:53:00
11:53 AM,73.9,63.0,68,30.17,10.0,SSW,4.6,-,N/A,,Clear,210,2013-01-14 16:53:00
12:53 PM,72.0,63.0,73,30.14,10.0,South,6.9,-,N/A,,Clear,170,2013-01-14 17:53:00
1:53 PM,73.0,62.1,68,30.12,10.0,SSE,6.9,-,N/A,,Clear,160,2013-01-14 18:53:00
2:53 PM,72.0,62.1,71,30.14,10.0,SSE,6.9,-,N/A,,Clear,160,2013-01-14 19:53:00
3:53 PM,69.1,61.0,75,30.14,10.0,SSE,8.1,-,N/A,,Clear,150,2013-01-14 20:53:00
4:53 PM,66.9,60.1,79,30.16,10.0,SSE,8.1,-,N/A,,Clear,160,2013-01-14 21:53:00
5:53 PM,66.0,60.1,81,30.16,10.0,SSE,5.8,-,N/A,,Clear,160,2013-01-14 22:53:00
6:53 PM,64.9,61.0,87,30.17,10.0,SSE,9.2,-,N/A,,Clear,160,2013-01-14 23:53:00
7:53 PM,64.9,61.0,87,30.17,10.0,South,6.9,-,N/A,,Clear,170,2013-01-15 00:53:00
8:53 PM,64.9,62.1,90,30.17,10.0,South,8.1,-,N/A,,Overcast,170,2013-01-15 01:53:00
9:53 PM,66.0,63.0,90,30.17,10.0,South,5.8,-,N/A,,Overcast,180,2013-01-15 02:53:00
10:53 PM,66.9,62.1,84,30.17,10.0,South,6.9,-,N/A,,Overcast,180,2013-01-15 03:53:00
11:53 PM,66.9,62.1,84,30.17,10.0,SSW,6.9,-,N/A,,Partly Cloudy,210,2013-01-15 04:53:00